Regional Weather Roundup
Issued by NWS Bismarck, ND

Home | Current Version | Previous Version | Text Only | Print | Product List | Glossary On
Versions: 1 2 3 4 5 6 7 8 9 10 11 12 13 14 15 16 17 18 19 20 21 22 23 24 25 26 27 28 29 30 31 32 33 34 35 36 37 38 39 40 41 42 43 44 45 46 47 48 49 50
936
ASUS43 KBIS 281810
RWRBIS

NWR BROADCAST TEXT
NATIONAL WEATHER SERVICE BISMARCK ND
100 PM CDT THU APR 28 2016

NOTE: "FAIR" INDICATES FEW OR NO CLOUDS BELOW 12,000 FEET WITH NO
SIGNIFICANT WEATHER AND/OR OBSTRUCTIONS TO VISIBILITY.


CITY           SKY/WX    TMP DP  RH WIND       PRES   REMARKS
WILLISTON      MOSUNNY   54  22  28 E16       30.15F
MINOT          MOSUNNY   59  14  17 NE14G22   30.14S
MINOT AFB      MOSUNNY   54  15  21 E14G24    30.13F
BISMARCK       PTSUNNY   54  25  32 E8        30.10F
DICKINSON      CLOUDY    43  32  65 SE7       30.09S
GARRISON         N/A     53  24  32 NE9G18    30.12S
HETTINGER ARPT CLOUDY    37  34  89 NE8       30.11R
JAMESTOWN      SUNNY     54  26  34 NE17G23   30.06F
BEACH          CLOUDY    41  34  75 NE9       30.14S
CARRINGTON     FAIR      54  23  30 E13G22    30.12S
HAZEN          FAIR      52  27  37 NE7G17    30.14S
LINTON         CLOUDY    50  34  53 NE12      30.09F
MANDAN         FAIR      52  27  37 NE10      30.10F
OAKES            N/A    N/A N/A N/A MISG        N/A
RUGBY          FAIR      54  16  22 NE20G28   30.14S
STANLEY        FAIR      52  19  28 NE15      30.16S
TIOGA          FAIR      50  16  25 E17G23    30.20S
WATFORD CITY   FAIR      50  25  37 E12       30.14F
$$

CITY           SKY/WX    TMP DP  RH WIND       PRES   REMARKS
GRAND FORKS    PTSUNNY   55  20  25 E20       30.12S
GRAND FORKS AF PTSUNNY   56  20  24 NE10G22   30.12F
DEVILS LAKE    SUNNY     52  17  25 E17       30.14S
FARGO          MOSUNNY   55  18  23 NE14      30.06S
CANDO          FAIR      54  14  20 NE16G28   30.17S
CAVALIER       FAIR      50  23  34 NE10      30.17F
GRAFTON        FAIR      52  23  32 NE14      30.17S
GWINNER        MOCLDY    48  36  61 NE12      30.06S
LANGDON        FAIR      50  19  29 NE14      30.16F
ROLLA          FAIR      52  10  19 E18       30.17F
WALHALLA       FAIR      54  25  32 NE14      30.17F
$$

CITY           SKY/WX    TMP DP  RH WIND       PRES   REMARKS
ABERDEEN       CLOUDY    47  33  58 NE9       30.05S
MOBRIDGE       PTSUNNY   48  38  68 N13G18    30.04F
BUFFALO          N/A     36  32  85 NE12      30.01S
RAPID CITY     CLOUDY    38  34  85 NW13      30.06R
GLASGOW        CLOUDY    50  30  46 E8        30.14F
SIDNEY         MOSUNNY   52  28  40 NE14      30.14F
WOLF POINT     MOSUNNY   52  26  36 NE13G22   30.15F
GLENDIVE       CLOUDY    46  32  57 NE8       30.14F
MILES CITY     CLOUDY    43  35  73 N10       30.10F
BAKER          LGT RAIN  37  33  85 E9        30.10S FOG
$$

CITY           SKY/WX    TMP DP  RH WIND       PRES   REMARKS
BILLINGS       FLURRIES  33  32  96 NE8       30.10R
GREAT FALLS    LGT RAIN  36  33  89 E5        30.10F
REGINA         PTSUNNY   55  16  21 E12G20    30.21F
ESTEVAN        CLOUDY    57  14  18 E15G25    30.17F
$$





USA.gov is the U.S. government's official web portal to all federal, state and local government web resources and services.